Location: Unspecified
(44.0704°N, 88.6889°W)
Time: 19:54:59
(UTC+02:00)

Altair - Pass Details

Date: 23 June 2019
Orbit: 1501 x 1683 km, 47.2° (Epoch: 14 July)

Event Time Altitude Azimuth Distance (km) Brightness Sun altitude
Rises 04:22:14 0° 246° (WSW) 4,701 10.4 -6.5°
Reaches altitude 10° 04:25:14 10° 246° (WSW) 3,741 9.9 -6.9°
Maximum altitude 04:34:48 88° 158° (SSE) 1,609 7.6 -8.2°
Drops below altitude 10° 04:44:47 10° 71° (ENE) 3,893 9.4 -9.5°
Sets 04:47:58 0° 71° (ENE) 4,900 9.9 -9.9°
